Weather History for Fort Worth NAS, TX

Change the Weather History Date:

Tuesday, October 15, 2013

  Actual Average Record
Temperature  
Mean Temperature 66 °F -  
Max Temperature 77 °F 75 °F 91 °F (1999)
Min Temperature 55 °F 56 °F 46 °F (2002)
Cooling Degree Days 1    
Growing Degree Days 16 (Base 50)    
Moisture  
Dew Point 60 °F    
Average Humidity 77    
Maximum Humidity 82    
Minimum Humidity 72    
Precipitation  
Precipitation 0.60 in - - ()
Sea Level Pressure  
Sea Level Pressure 30.00 in    
Wind  
Wind Speed 12 mph (WNW)    
Max Wind Speed 20 mph    
Max Gust Speed 34 mph    
Visibility 8 miles    
Events Rain    
Averages and records for this station are not official NWS values.
T = Trace of Precipitation, MM = Missing Value Source: NWS Daily Summary

Daily Weather History Graph

Daily Weather History Graph

Search for Another Location

Airport:

Trip Planner

Search our weather history database for the weather conditions in past years. The results will help you decide how hot, cold, wet, or windy it might be!

Date:

Astronomy

Oct. 15, 2013 Rise Set
Actual Time 7:34 AM CDT 6:56 PM CDT
Civil Twilight 7:09 AM CDT 7:21 PM CDT
Nautical Twilight 6:40 AM CDT 7:49 PM CDT
Astronomical Twilight 6:11 AM CDT 8:18 PM CDT
Moon 4:53 PM CDT (10/15) 4:08 AM CDT (10/15)
Length of Visible Light 12h 12m
Length of Day
11h 22m
Waxing Gibbous, 88% of the Moon is Illuminated
Oct 15
Waxing Gibbous
Oct 18
Full
Oct 26
Last Quarter
Nov 3
New
Nov 9
First Quarter

Hourly Weather History & Observations

Time (CDT) Temp. Dew Point Humidity Pressure Visibility Wind Dir Wind Speed Gust Speed Precip Events Conditions
12:52 AM 75.9 °F 66.9 °F 74% 29.93 in 10.0 mi South 12.7 mph - N/A   Clear
1:52 AM 75.9 °F 68.0 °F 76% 29.92 in 10.0 mi South 16.1 mph - N/A   Clear
2:52 AM 75.0 °F 68.0 °F 79% 29.91 in 10.0 mi South 17.3 mph - N/A   Clear
3:52 AM 75.0 °F 66.9 °F 76% 29.90 in 10.0 mi South 13.8 mph - N/A   Partly Cloudy
4:32 AM 75.2 °F 66.2 °F 73% 29.94 in 10.0 mi South 8.1 mph - N/A   Mostly Cloudy
4:52 AM 75.0 °F 66.9 °F 76% 29.90 in 10.0 mi South 9.2 mph - N/A   Overcast
5:52 AM 75.0 °F 66.9 °F 76% 29.90 in 10.0 mi South 9.2 mph - N/A   Overcast
6:44 AM 75.2 °F 68.0 °F 78% 29.96 in 10.0 mi South 10.4 mph - 0.00 in Rain Light Rain
6:52 AM 75.0 °F 68.0 °F 79% 29.91 in 10.0 mi South 11.5 mph - 0.00 in   Overcast
7:32 AM 75.2 °F 68.0 °F 78% 29.97 in 10.0 mi South 3.5 mph - 0.00 in Rain Light Rain
7:52 AM 75.0 °F 68.0 °F 79% 29.93 in 10.0 mi SSW 4.6 mph - 0.00 in   Overcast
8:52 AM 75.9 °F 68.0 °F 76% 29.94 in 10.0 mi SSE 4.6 mph - N/A   Overcast
9:11 AM 75.2 °F 68.0 °F 78% 29.98 in 10.0 mi South 6.9 mph - N/A   Overcast
9:52 AM 75.9 °F 68.0 °F 76% 29.95 in 10.0 mi South 6.9 mph - N/A   Overcast
10:29 AM 77.0 °F 68.0 °F 74% 30.01 in 10.0 mi SSW 8.1 mph - 0.00 in Rain Light Rain
10:52 AM 77.0 °F 68.0 °F 74% 29.96 in 7.0 mi SSW 5.8 mph - 0.00 in Rain Light Rain
11:33 AM 71.6 °F 64.4 °F 78% 30.02 in 6.0 mi NW 19.6 mph 34.5 mph 0.03 in Rain Light Rain
11:52 AM 69.1 °F 62.1 °F 78% 29.99 in 10.0 mi NW 19.6 mph - 0.03 in Rain Light Rain
12:12 PM 68.0 °F 60.8 °F 78% 30.03 in 10.0 mi NNW 16.1 mph 25.3 mph 0.01 in Rain Light Rain
12:52 PM 66.9 °F 60.1 °F 79% 29.97 in 10.0 mi NNW 15.0 mph 19.6 mph 0.02 in Rain Light Rain
1:52 PM 66.0 °F 59.0 °F 78% 29.97 in 10.0 mi North 16.1 mph - 0.01 in Rain Light Rain
2:52 PM 63.0 °F 55.0 °F 75% 30.00 in 10.0 mi NNW 16.1 mph - 0.00 in   Overcast
3:37 PM 62.6 °F 53.6 °F 72% 30.04 in 6.0 mi NNW 15.0 mph - 0.02 in Rain Rain
3:52 PM 62.1 °F 54.0 °F 75% 29.99 in 6.0 mi North 12.7 mph - 0.03 in Rain Light Rain
4:52 PM 60.1 °F 53.1 °F 78% 30.00 in 6.0 mi NNW 15.0 mph - 0.00 in Rain Light Rain
5:52 PM 59.0 °F 52.0 °F 78% 30.00 in 6.0 mi North 11.5 mph - 0.05 in Rain Light Rain
6:09 PM 59.0 °F 51.8 °F 77% 30.05 in 6.0 mi NNW 12.7 mph - 0.01 in Rain Light Rain
6:52 PM 57.9 °F 51.1 °F 78% 30.01 in 4.0 mi NNW 12.7 mph - 0.07 in Rain Rain
7:52 PM 57.0 °F 50.0 °F 77% 30.05 in 6.0 mi NNW 11.5 mph - 0.12 in Rain Light Rain
8:52 PM 57.0 °F 50.0 °F 77% 30.05 in 5.0 mi North 11.5 mph - 0.09 in Rain Light Rain
9:00 PM 55.4 °F 50.0 °F 82% 30.10 in 6.0 mi North 12.7 mph - 0.01 in Rain Light Rain
9:06 PM 55.4 °F 50.0 °F 82% 30.11 in 6.0 mi NNW 11.5 mph - 0.02 in Rain Rain
9:28 PM 55.4 °F 50.0 °F 82% 30.11 in 6.0 mi North 9.2 mph - 0.05 in Rain Light Rain
9:52 PM 55.9 °F 48.9 °F 77% 30.06 in 6.0 mi North 11.5 mph - 0.08 in Rain Light Rain
10:52 PM 55.9 °F 48.9 °F 77% 30.11 in 10.0 mi NW 10.4 mph - 0.04 in Rain Light Rain
10:59 PM 55.4 °F 48.2 °F 77% 30.15 in 10.0 mi North 10.4 mph - 0.01 in Rain Light Rain
11:52 PM 55.9 °F 48.9 °F 77% 30.06 in 10.0 mi North 9.2 mph - 0.06 in Rain Light Rain